TimeCET,TemperatureF,Dew PointF,Humidity,Sea Level PressureIn,VisibilityMPH,Wind Direction,Wind SpeedMPH,Gust SpeedMPH,PrecipitationIn,Events,Conditions,WindDirDegrees,DateUTC
12:00 AM,6.8,3.2,85,29.83,0.0,Calm,Calm,-,N/A,,Unknown,0,2013-01-17 23:00:00
12:30 AM,5.0,1.4,85,29.83,1.3,South,1.2,-,N/A,,Overcast,180,2013-01-17 23:30:00
1:00 AM,5.0,1.4,85,29.80,2.5,Calm,Calm,-,N/A,,Unknown,0,2013-01-18 00:00:00
1:30 AM,5.0,1.4,85,29.80,-9999.0,Calm,Calm,-,N/A,,Unknown,0,2013-01-18 00:30:00
2:00 AM,8.6,6.8,92,29.80,-9999.0,East,2.3,-,N/A,,Unknown,100,2013-01-18 01:00:00
2:30 AM,6.8,3.2,85,29.77,0.1,Calm,Calm,-,N/A,,Unknown,0,2013-01-18 01:30:00
3:00 AM,6.8,5.0,92,29.77,0.7,Calm,Calm,-,N/A,,Unknown,0,2013-01-18 02:00:00
3:30 AM,8.6,5.0,85,29.74,-9999.0,Variable,2.3,-,N/A,,Unknown,0,2013-01-18 02:30:00
4:00 AM,8.6,6.8,92,29.74,-9999.0,Calm,Calm,-,N/A,,Unknown,0,2013-01-18 03:00:00
4:30 AM,12.2,8.6,85,29.71,3.1,ESE,2.3,-,N/A,,Unknown,120,2013-01-18 03:30:00
5:00 AM,10.4,6.8,85,29.71,3.1,Variable,3.5,-,N/A,,Unknown,0,2013-01-18 04:00:00
5:30 AM,10.4,8.6,92,29.71,3.7,Calm,Calm,-,N/A,,Unknown,0,2013-01-18 04:30:00
6:00 AM,12.2,10.4,92,29.68,3.7,East,4.6,-,N/A,,Unknown,90,2013-01-18 05:00:00
6:30 AM,12.2,10.4,92,29.68,3.1,ESE,1.2,-,N/A,,Mist,110,2013-01-18 05:30:00
7:00 AM,14.0,10.4,86,29.68,3.7,SE,2.3,-,N/A,,Unknown,140,2013-01-18 06:00:00
7:30 AM,15.8,14.0,93,29.68,3.7,ESE,2.3,-,N/A,,Unknown,120,2013-01-18 06:30:00
8:00 AM,15.8,14.0,93,29.68,3.7,SSE,1.2,-,N/A,,Unknown,160,2013-01-18 07:00:00
8:30 AM,15.8,14.0,93,29.68,4.3,ESE,2.3,-,N/A,,Unknown,110,2013-01-18 07:30:00
9:00 AM,17.6,14.0,86,29.65,4.3,East,2.3,-,N/A,,Unknown,100,2013-01-18 08:00:00
9:30 AM,17.6,15.8,93,29.65,4.3,SSE,2.3,-,N/A,,Unknown,160,2013-01-18 08:30:00
10:00 AM,19.4,15.8,86,29.65,3.1,Variable,1.2,-,N/A,,Mist,0,2013-01-18 09:00:00
10:30 AM,21.2,17.6,86,29.65,4.3,ESE,3.5,-,N/A,,Unknown,110,2013-01-18 09:30:00
11:00 AM,23.0,19.4,86,29.65,4.3,Variable,2.3,-,N/A,,Unknown,0,2013-01-18 10:00:00
11:30 AM,24.8,21.2,86,29.62,4.3,ESE,3.5,-,N/A,,Mostly Cloudy,110,2013-01-18 10:30:00
12:00 PM,26.6,21.2,80,29.59,4.3,ESE,3.5,-,N/A,,Mostly Cloudy,110,2013-01-18 11:00:00
12:30 PM,28.4,19.4,69,29.59,6.2,ESE,3.5,-,N/A,,Mostly Cloudy,110,2013-01-18 11:30:00
1:00 PM,30.2,21.2,69,29.59,6.2,East,2.3,-,N/A,,Overcast,100,2013-01-18 12:00:00
1:30 PM,32.0,21.2,64,29.56,6.2,East,3.5,-,N/A,,Overcast,100,2013-01-18 12:30:00
2:00 PM,32.0,23.0,69,29.56,6.2,ESE,3.5,-,N/A,,Overcast,110,2013-01-18 13:00:00
2:30 PM,33.8,23.0,65,29.53,6.2,East,5.8,-,N/A,,Overcast,90,2013-01-18 13:30:00
3:00 PM,33.8,21.2,60,29.53,6.2,ESE,6.9,-,N/A,,Overcast,110,2013-01-18 14:00:00
3:30 PM,33.8,23.0,65,29.50,6.2,Variable,3.5,-,N/A,,Overcast,0,2013-01-18 14:30:00
4:00 PM,33.8,24.8,70,29.50,6.2,SE,4.6,-,N/A,,Overcast,130,2013-01-18 15:00:00
4:30 PM,35.6,26.6,70,29.47,6.2,ESE,5.8,-,N/A,,Overcast,120,2013-01-18 15:30:00
5:00 PM,35.6,26.6,70,29.47,6.2,ESE,4.6,-,N/A,,Overcast,110,2013-01-18 16:00:00
5:30 PM,33.8,28.4,81,29.47,3.1,East,5.8,-,N/A,,Light Drizzle,100,2013-01-18 16:30:00
6:00 PM,33.8,30.2,87,29.44,1.2,East,4.6,-,N/A,Rain,Light Rain,100,2013-01-18 17:00:00
6:30 PM,33.8,32.0,93,29.44,1.6,SE,6.9,-,N/A,Rain,Light Rain,130,2013-01-18 17:30:00
7:00 PM,33.8,32.0,93,29.44,1.2,ESE,5.8,-,N/A,Rain,Rain,110,2013-01-18 18:00:00
7:30 PM,33.8,33.8,100,29.42,-9999.0,East,6.9,-,N/A,Rain,Light Rain,90,2013-01-18 18:30:00
8:00 PM,33.8,32.0,93,29.42,-9999.0,SE,5.8,-,N/A,Rain,Rain,140,2013-01-18 19:00:00
8:30 PM,33.8,33.8,100,29.42,-9999.0,ESE,3.5,-,N/A,Snow,Light Snow,110,2013-01-18 19:30:00
9:00 PM,33.8,33.8,100,29.42,2.2,East,5.8,-,N/A,Snow,Light Snow,100,2013-01-18 20:00:00
9:30 PM,35.6,33.8,93,29.39,3.1,ESE,4.6,-,N/A,Snow,Light Snow,110,2013-01-18 20:30:00
10:00 PM,33.8,33.8,100,29.39,3.7,ESE,3.5,-,N/A,Snow,Light Snow,120,2013-01-18 21:00:00
10:30 PM,35.6,33.8,93,29.36,6.2,ESE,6.9,-,N/A,Rain-Snow,Light Snow,110,2013-01-18 21:30:00
11:00 PM,35.6,33.8,93,29.36,5.6,East,6.9,-,N/A,Rain,Rain,100,2013-01-18 22:00:00
11:30 PM,35.6,33.8,93,29.36,5.0,East,4.6,-,N/A,Rain,Rain,100,2013-01-18 22:30:00